Girdwood, AK

10:20 AM AKST on February 25, 2017 (GMT -0900)
Portage Glacier

Weather History for PATO - November, 2013

Change the Weather History Date:

Saturday, November 9, 2013

  Actual Average (PAWR) Record (PAWR)
Temperature  
Mean Temperature 28 °F -  
Max Temperature 37 °F 35 °F 45 °F (1952)
Min Temperature 19 °F 28 °F 2 °F (1990)
Degree Days  
Heating Degree Days 37    
Moisture  
Dew Point 24 °F    
Average Humidity 84    
Maximum Humidity 96    
Minimum Humidity 65    
Precipitation  
Precipitation 0.00 in - - ()
Sea Level Pressure  
Sea Level Pressure 30.20 in    
Wind  
Wind Speed 6 mph (SE)    
Max Wind Speed 14 mph    
Max Gust Speed 24 mph    
Visibility 10 miles    
Events Snow    
Averages and records for this station are not official NWS values.
T = Trace of Precipitation, MM = Missing Value Source: NWS Daily Summary

Daily Weather History Graph

Daily Weather History Graph

Search for Another Location

Airport or City:

Trip Planner

Search our weather history database for the weather conditions in past years. The results will help you decide how hot, cold, wet, or windy it might be!

Date:

Astronomy

Nov. 09, 2013 Rise Set
Actual Time 8:43 AM AKST 4:33 PM AKST
Civil Twilight 7:54 AM AKST 5:22 PM AKST
Nautical Twilight 7:02 AM AKST 6:14 PM AKST
Astronomical Twilight 6:12 AM AKST 7:04 PM AKST
Moon 2:05 PM AKST (11/9) 11:43 PM AKST (11/9)
Length of Visible Light 9h 27m
Length of Day
7h 49m
Waxing Crescent, 46% of the Moon is Illuminated
Nov 9
Waxing Crescent
Nov 9
First Quarter
Nov 17
Full
Nov 25
Last Quarter
Dec 2
New

Hourly Weather History & Observations

Time (AKST) Temp. Windchill Dew Point Humidity Pressure Visibility Wind Dir Wind Speed Gust Speed Precip Events Conditions
12:53 AM 21.9 °F 12.5 °F 18.0 °F 85% 30.22 in 10.0 mi West 8.1 mph - N/A   Clear
1:53 AM 21.0 °F 14.6 °F 18.0 °F 88% 30.22 in 10.0 mi NW 4.6 mph - N/A   Clear
2:53 AM 21.9 °F 17.2 °F 19.9 °F 92% 30.23 in 10.0 mi NNW 3.5 mph - N/A   Clear
3:53 AM 19.0 °F - 18.0 °F 96% 30.24 in 10.0 mi Calm Calm - N/A   Clear
4:53 AM 19.0 °F - 18.0 °F 96% 30.22 in 10.0 mi Calm Calm - N/A   Clear
5:53 AM 19.9 °F 14.9 °F 19.0 °F 96% 30.23 in 10.0 mi WSW 3.5 mph - N/A   Partly Cloudy
6:53 AM 19.9 °F - 19.0 °F 96% 30.23 in 10.0 mi Calm Calm - N/A   Mostly Cloudy
7:53 AM 19.0 °F - 18.0 °F 96% 30.22 in 10.0 mi Calm Calm - N/A   Partly Cloudy
8:53 AM 21.9 °F - 21.0 °F 96% 30.23 in 10.0 mi Calm Calm - N/A   Overcast
9:53 AM 25.0 °F - 23.0 °F 92% 30.22 in 10.0 mi Calm Calm - N/A   Overcast
10:53 AM 28.0 °F 24.2 °F 24.1 °F 85% 30.22 in 10.0 mi ESE 3.5 mph - N/A   Overcast
11:53 AM 28.0 °F 22.8 °F 25.0 °F 88% 30.21 in 10.0 mi NW 4.6 mph - N/A   Overcast
12:53 PM 35.1 °F 27.9 °F 26.1 °F 70% 30.20 in 10.0 mi East 9.2 mph 23.0 mph N/A   Overcast
1:53 PM 36.0 °F 28.5 °F 27.0 °F 70% 30.20 in 10.0 mi ESE 10.4 mph 18.4 mph N/A   Overcast
2:53 PM 37.9 °F 29.6 °F 27.0 °F 65% 30.20 in 10.0 mi ESE 13.8 mph 21.9 mph N/A   Overcast
3:53 PM 37.0 °F 28.9 °F 28.0 °F 70% 30.19 in 10.0 mi ESE 12.7 mph 23.0 mph N/A   Overcast
4:53 PM 37.0 °F 28.9 °F 28.0 °F 70% 30.19 in 10.0 mi SE 12.7 mph 24.2 mph N/A   Overcast
5:53 PM 37.0 °F 29.8 °F 28.0 °F 70% 30.20 in 10.0 mi SE 10.4 mph 20.7 mph N/A   Overcast
6:53 PM 37.0 °F 29.3 °F 28.9 °F 73% 30.19 in 10.0 mi SSE 11.5 mph 23.0 mph N/A   Overcast
7:53 PM 36.0 °F 29.0 °F 30.0 °F 79% 30.18 in 10.0 mi SE 9.2 mph 19.6 mph N/A   Overcast
8:53 PM 35.1 °F 27.4 °F 28.9 °F 78% 30.18 in 10.0 mi SSE 10.4 mph 23.0 mph N/A   Overcast
9:53 PM 35.1 °F 27.4 °F 30.0 °F 82% 30.17 in 10.0 mi SSE 10.4 mph 21.9 mph N/A   Overcast
10:53 PM 34.0 °F 26.0 °F 30.9 °F 89% 30.16 in 9.0 mi SSE 10.4 mph 21.9 mph 0.00 in Snow Light Snow
11:53 PM 35.1 °F 26.4 °F 30.0 °F 82% 30.16 in 10.0 mi SE 12.7 mph 24.2 mph 0.00 in   Overcast